Location: Acheville
(50.3840°N, 2.8827°E)
Time: 15:41:19
(UTC+00:00)

NOSS 3-1 (A) - Pass Details

Date: 24 October 2021
Orbit: 721 x 1491 km, 63.4° (Epoch: 22 November)

Event Time Altitude Azimuth Distance (km) Brightness Sun altitude
Rises 19:38:23 0° 237° (WSW) 3,257 6.8 -29.1°
Reaches altitude 10° 19:40:40 10° 242° (WSW) 2,397 6.0 -29.4°
Maximum altitude 19:46:06 59° 322° (NW) 1,040 3.7 -30.2°
Enters shadow 19:47:26 49° 9° (N) 1,199 3.9 -30.4°
